CW9769 Weather Reports


time (UTC)temp
C
wind
direction
speed
KPH
gust
KPH
rain 1hr
cm
rain 24hr
cm
rain mn
cm
humidity
%
barometer
mb
20260508135435 12 321 8.0 19.3 0.00 0.00 0.00 69 1012.1
20260508134434 12 340 14.5 24.1 0.00 0.00 0.00 69 1012.0
20260508133402 12 338 14.5 25.7 0.00 0.00 0.00 68 1012.0
20260508132401 12 319 14.5 25.7 0.00 0.00 0.00 68 1012.3
20260508131400 11 339 14.5 24.1 0.00 0.00 0.00 69 1012.0
20260508130359 11 331 14.5 25.7 0.00 0.00 0.00 69 1012.3
20260508125359 11 311 19.3 25.7 0.00 0.00 0.00 69 1012.3
20260508124358 11 323 14.5 22.5 0.00 0.00 0.00 69 1012.3
20260508123357 11 322 14.5 22.5 0.00 0.00 0.00 70 1012.4
20260508122356 10 304 11.3 19.3 0.00 0.00 0.00 71 1012.4
20260508121355 10 315 11.3 20.9 0.00 0.00 0.00 71 1012.0
20260508120354 9 302 8.0 17.7 0.00 0.00 0.00 73 1012.0
20260508115321 9 288 9.7 16.1 0.00 0.00 0.00 75 1012.0
20260508114321 8 278 8.0 16.1 0.00 0.00 0.00 78 1011.6
20260508113320 8 264 6.4 14.5 0.00 0.00 0.00 79 1011.3
20260508112146 7 267 6.4 12.9 0.00 0.00 0.00 81 1011.6
20260508111145 7 271 6.4 12.9 0.00 0.00 0.00 81 1011.6
20260508110144 7 267 6.4 12.9 0.00 0.00 0.00 81 1011.3
20260508105143 8 278 6.4 9.7 0.00 0.00 0.00 80 1011.3
20260508104143 7 278 4.8 16.1 0.00 0.00 0.00 82 1011.3
20260508103142 8 281 8.0 24.1 0.00 0.00 0.00 79 1011.4
20260508102141 8 304 11.3 32.2 0.00 0.00 0.00 78 1011.4
20260508101109 8 298 25.7 33.8 0.00 0.00 0.00 75 1011.1
20260508100037 9 296 19.3 30.6 0.00 0.00 0.00 75 1011.8
20260508095036 9 291 19.3 30.6 0.00 0.00 0.00 72 1011.8
20260508094035 8 293 9.7 16.1 0.00 0.00 0.00 74 1011.8
20260508093035 8 284 6.4 14.5 0.00 0.00 0.00 75 1011.4
20260508092034 8 288 6.4 14.5 0.00 0.00 0.00 75 1011.4
20260508091033 8 298 6.4 16.1 0.00 0.00 0.00 75 1011.8
20260508090032 8 300 8.0 16.1 0.00 0.00 0.00 75 1011.4
20260508085031 8 283 8.0 12.9 0.00 0.00 0.00 78 1011.3
20260508084030 7 291 6.4 14.5 0.00 0.00 0.00 77 1011.7
20260508083030 7 288 8.0 16.1 0.00 0.00 0.00 78 1011.7
20260508082029 7 287 6.4 12.9 0.00 0.00 0.00 79 1012.0
20260508081028 7 282 6.4 16.1 0.00 0.00 0.00 80 1011.7
20260508080027 7 286 6.4 16.1 0.00 0.00 0.00 80 1011.6
20260508074924 7 266 9.7 14.5 0.00 0.00 0.00 80 1011.6
20260508073923 7 258 4.8 14.5 0.00 0.00 0.00 80 1011.6
20260508072922 7 279 8.0 16.1 0.00 0.00 0.00 79 1012.0
20260508071921 7 283 9.7 17.7 0.00 0.00 0.00 78 1012.0
20260508070920 7 278 12.9 19.3 0.00 0.00 0.00 78 1012.0
20260508065919 8 279 9.7 17.7 0.00 0.00 0.00 78 1012.1
20260508064917 8 290 9.7 24.1 0.00 0.00 0.00 76 1012.1
20260508063917 8 291 16.1 29.0 0.00 0.00 0.00 74 1012.1
20260508062916 8 288 14.5 38.6 0.00 0.00 0.00 74 1012.4
20260508061915 9 291 20.9 38.6 0.00 0.00 0.00 71 1011.7
20260508060843 9 272 17.7 29.0 0.00 0.00 0.00 68 1012.1
20260508055842 8 270 9.7 17.7 0.00 0.00 0.00 67 1012.0
20260508054841 8 273 9.7 16.1 0.00 0.00 0.00 70 1012.3
20260508053841 8 263 4.8 12.9 0.00 0.00 0.00 71 1012.3
20260508052738 8 256 4.8 8.0 0.00 0.00 0.00 73 1012.3
20260508051737 8 246 1.6 6.4 0.00 0.00 0.00 73 1012.6
20260508050736 8 235 3.2 6.4 0.00 0.00 0.00 72 1012.7
20260508045735 8 242 3.2 8.0 0.00 0.00 0.00 71 1012.7
20260508044734 7 256 3.2 8.0 0.00 0.00 0.00 72 1013.0
20260508043734 8 261 1.6 3.2 0.00 0.00 0.00 72 1012.7
20260508042733 8 261 1.6 8.0 0.00 0.00 0.00 70 1012.7
20260508041732 8 266 3.2 9.7 0.00 0.00 0.00 69 1012.7
20260508040700 8 266 6.4 9.7 0.00 0.00 0.00 68 1012.7
20260508035658 8 266 4.8 16.1 0.00 0.00 0.00 66 1012.7
20260508034657 9 285 4.8 16.1 0.00 0.00 0.00 65 1013.0
20260508033656 9 283 8.0 16.1 0.00 0.00 0.00 64 1013.0
20260508032655 9 288 6.4 20.9 0.00 0.00 0.00 63 1013.0
20260508031654 9 290 6.4 20.9 0.00 0.00 0.00 62 1013.0
20260508030654 9 288 8.0 20.9 0.00 0.00 0.00 61 1013.0
20260508025653 10 282 12.9 22.5 0.00 0.00 0.00 61 1013.0
20260508024652 10 297 14.5 25.7 0.00 0.00 0.00 59 1013.3
20260508023620 10 308 14.5 25.7 0.00 0.00 0.00 58 1013.3
20260508022619 10 293 11.3 22.5 0.00 0.00 0.00 56 1013.0
20260508021547 10 306 8.0 12.9 0.00 0.00 0.00 57 1013.0
20260508020545 10 296 3.2 14.5 0.00 0.00 0.00 58 1012.9
20260508015545 9 280 8.0 12.9 0.00 0.00 0.00 67 1012.6
20260508014544 9 282 3.2 11.3 0.00 0.00 0.00 67 1012.6
20260508013543 9 323 1.6 14.5 0.00 0.00 0.00 69 1012.5
20260508012542 8 201 8.0 14.5 0.00 0.00 0.00 69 1012.1
20260508011541 8 18 0.0 1.6 0.00 0.00 0.00 73 1012.1
20260508010540 8 18 0.0 3.2 0.00 0.00 0.00 73 1012.1
20260508005539 9 18 3.2 3.2 0.00 0.00 0.00 62 1012.1
20260508004508 10 18 0.0 0.0 0.00 0.00 0.00 62 1011.8
20260508003507 10 18 0.0 3.2 0.00 0.00 0.00 56 1012.1
20260508002506 11 18 3.2 6.4 0.00 0.00 0.00 56 1011.8
20260508001506 11 16 1.6 6.4 0.00 0.00 0.00 57 1011.8
20260508000434 12 22 3.2 6.4 0.00 0.00 0.00 50 1011.8
20260507235433 12 14 1.6 12.9 0.00 0.00 0.00 49 1011.8
20260507234432 12 27 6.4 14.5 0.00 0.00 0.00 47 1011.8
20260507233431 12 36 6.4 19.3 0.00 0.00 0.00 46 1011.8
20260507232430 12 3 8.0 19.3 0.00 0.00 0.00 48 1011.8
20260507231429 13 30 8.0 17.7 0.00 0.00 0.00 46 1011.8
20260507230428 12 7 6.4 17.7 0.00 0.00 0.00 47 1011.8
20260507225428 12 358 11.3 24.1 0.00 0.00 0.00 49 1011.7
20260507224427 13 354 6.4 25.7 0.00 0.00 0.00 44 1012.1
20260507223426 13 346 16.1 25.7 0.00 0.00 0.00 43 1011.8
20260507222426 13 14 14.5 22.5 0.00 0.00 0.00 40 1011.8
20260507221425 13 336 12.9 25.7 0.00 0.00 0.00 47 1011.8
20260507220424 13 351 16.1 25.7 0.00 0.00 0.00 43 1011.8
20260507215424 13 348 12.9 29.0 0.00 0.00 0.00 44 1011.9
20260507214422 13 356 19.3 29.0 0.00 0.00 0.00 43 1011.9
20260507213350 13 13 19.3 25.7 0.00 0.00 0.00 46 1011.9
20260507212349 13 8 17.7 29.0 0.00 0.00 0.00 44 1011.9
20260507211348 14 15 16.1 29.0 0.00 0.00 0.00 42 1011.9
20260507210347 13 355 16.1 27.4 0.00 0.00 0.00 45 1011.9
20260507205346 13 8 14.5 30.6 0.00 0.00 0.00 42 1011.8
20260507204345 13 359 16.1 30.6 0.00 0.00 0.00 44 1011.5
20260507203344 14 353 12.9 33.8 0.00 0.00 0.00 51 1011.6
20260507202343 13 336 16.1 33.8 0.00 0.00 0.00 45 1011.5
20260507201340 14 326 19.3 29.0 0.00 0.00 0.00 44 1011.5
20260507200340 12 359 16.1 29.0 0.00 0.00 0.00 46 1011.4
20260507195339 12 351 19.3 30.6 0.00 0.00 0.00 48 1011.4
20260507194338 12 333 20.9 30.6 0.00 0.00 0.00 50 1011.8
20260507193306 13 323 20.9 35.4 0.00 0.00 0.00 46 1011.9
20260507192306 13 322 19.3 35.4 0.00 0.00 0.00 49 1011.9
20260507191304 13 305 17.7 32.2 0.00 0.00 0.00 47 1011.9
20260507190232 13 318 14.5 32.2 0.00 0.00 0.00 49 1011.9
20260507185231 13 314 16.1 30.6 0.00 0.00 0.00 47 1012.2
20260507184231 13 315 16.1 29.0 0.00 0.00 0.00 49 1012.2
20260507183230 12 335 19.3 29.0 0.00 0.00 0.00 52 1012.2
20260507182228 12 314 8.0 30.6 0.00 0.00 0.00 55 1012.2
20260507181228 12 325 16.1 30.6 0.00 0.00 0.00 53 1012.2
20260507180226 12 322 12.9 25.7 0.00 0.00 0.00 49 1012.2
20260507175225 12 325 14.5 29.0 0.00 0.00 0.00 49 1012.1
20260507174224 12 338 17.7 29.0 0.00 0.00 0.00 52 1012.1
20260507173223 12 308 12.9 27.4 0.00 0.00 0.00 49 1012.2
20260507172223 12 331 16.1 24.1 0.00 0.00 0.00 51 1012.2
20260507171221 12 329 9.7 29.0 0.00 0.00 0.00 50 1012.5
20260507170221 13 337 17.7 29.0 0.00 0.00 0.00 52 1012.6
20260507165220 12 313 22.5 27.4 0.00 0.00 0.00 48 1012.5
20260507164219 12 302 16.1 24.1 0.00 0.00 0.00 50 1012.6
20260507163218 13 351 12.9 20.9 0.00 0.00 0.00 51 1012.3
20260507162146 13 345 12.9 20.9 0.00 0.00 0.00 50 1012.3
20260507161146 13 338 12.9 20.9 0.00 0.00 0.00 52 1012.3
20260507160145 12 5 11.3 22.5 0.00 0.00 0.00 53 1012.3
20260507155144 11 329 14.5 29.0 0.00 0.00 0.00 52 1012.5
20260507154143 12 336 16.1 29.0 0.00 0.00 0.00 54 1012.6
20260507153143 12 330 11.3 16.1 0.00 0.00 0.00 53 1012.6
20260507152142 12 323 9.7 16.1 0.00 0.00 0.00 55 1012.6
20260507151141 12 297 8.0 20.9 0.00 0.00 0.00 58 1012.6
20260507150141 12 343 11.3 20.9 0.00 0.00 0.00 61 1012.6
20260507145140 11 313 6.4 14.5 0.00 0.00 0.00 62 1012.5
20260507144139 11 283 9.7 16.1 0.00 0.00 0.00 66 1012.5
20260507143139 11 295 6.4 17.7 0.00 0.00 0.00 67 1012.5
20260507142004 11 321 4.8 16.1 0.00 0.00 0.00 65 1012.5
20260507141004 10 285 6.4 16.1 0.00 0.00 0.00 67 1012.5
20260507140003 10 340 8.0 16.1 0.00 0.00 0.00 68 1012.5